This is the latest recevied weather packets stored in our database for station/object DL9GRB-13. If no packets are shown the sender has not sent any weather packets the latest 10 day(s).
| Time | Temp. | Humidity | Pressure | Rain* | Wind** | Luminosity | Snow |
|---|---|---|---|---|---|---|---|
| 1777559166 | 18.33° C | 34% | 1029.9 hPa | 0 mm | - | 476 W/m² | - |
| 1777558986 | 18.33° C | 35% | 1029.7 hPa | 0 mm | - | 488 W/m² | - |
| 1777558806 | 18.33° C | 35% | 1029.7 hPa | 0 mm | - | 498 W/m² | - |
| 1777558626 | 18.33° C | 35% | 1029.8 hPa | 0 mm | - | 519 W/m² | - |
| 1777558446 | 18.33° C | 34% | 1029.9 hPa | 0 mm | - | 527 W/m² | - |
| 1777558266 | 17.78° C | 35% | 1029.8 hPa | 0 mm | - | 532 W/m² | - |
| 1777558086 | 17.78° C | 35% | 1029.9 hPa | 0 mm | - | 544 W/m² | - |
| 1777557906 | 17.78° C | 34% | 1030 hPa | 0 mm | - | 549 W/m² | - |
| 1777557726 | 17.78° C | 36% | 1029.8 hPa | 0 mm | - | 552 W/m² | - |
| 1777557546 | 17.78° C | 35% | 1029.9 hPa | 0 mm | - | 543 W/m² | - |
| 1777557366 | 17.78° C | 34% | 1030.1 hPa | 0 mm | - | 528 W/m² | - |
| 1777557186 | 17.78° C | 35% | 1029.9 hPa | 0 mm | - | 549 W/m² | - |
| 1777557006 | 17.78° C | 35% | 1030 hPa | 0 mm | - | 585 W/m² | - |
| 1777556826 | 17.78° C | 35% | 1030.1 hPa | 0 mm | - | 590 W/m² | - |
| 1777556646 | 17.78° C | 35% | 1030.2 hPa | 0 mm | - | 589 W/m² | - |
| 1777556466 | 17.78° C | 35% | 1030 hPa | 0 mm | - | 583 W/m² | - |
| 1777556286 | 17.78° C | 36% | 1030.2 hPa | 0 mm | - | 603 W/m² | - |
| 1777556106 | 17.78° C | 36% | 1030 hPa | 0 mm | - | 517 W/m² | - |
| 1777555926 | 17.78° C | 36% | 1030.3 hPa | 0 mm | - | 608 W/m² | - |
| 1777555746 | 17.78° C | 36% | 1030.1 hPa | 0 mm | - | 608 W/m² | - |
| 1777555566 | 17.78° C | 36% | 1030.2 hPa | 0 mm | - | 618 W/m² | - |
| 1777555386 | 17.78° C | 37% | 1030.4 hPa | 0 mm | - | 626 W/m² | - |
| 1777555206 | 17.78° C | 37% | 1030.3 hPa | 0 mm | - | 630 W/m² | - |
| 1777555026 | 17.78° C | 36% | 1030.5 hPa | 0 mm | - | 639 W/m² | - |
| 1777554846 | 17.78° C | 37% | 1030.5 hPa | 0 mm | - | 640 W/m² | - |
* Rain latest hour (hover to see other rain measurements)
** Current wind speed in m/s (hover to see current wind gust speed)